Location: Coupvray
(48.8929°N, 2.7967°E)
Time: 14:08:21
(UTC+00:00)

Altair 2 - Pass Details

Date: 22 January 2021
Orbit: 837 x 949 km, 90.2° (Epoch: 28 February)

Event Time Altitude Azimuth Distance (km) Brightness Sun altitude
Rises 04:21:52 0° 16° (NNE) 3,452 11.1 -30.7°
Reaches altitude 10° 04:25:35 10° 41° (NE) 2,531 10.7 -30.1°
Maximum altitude 04:28:30 14° 72° (ENE) 2,262 10.7 -29.7°
Drops below altitude 10° 04:31:26 10° 103° (ESE) 2,561 11.1 -29.2°
Sets 04:35:12 0° 128° (SE) 3,521 11.6 -28.6°
